STARLINK-4070 (52664 NORAD) Tracking and Keplerian Element Data

This shows tracking and keplerian element data for the satellite.

Feedback or suggestion? Click here.




ElementValue
Catalog52664
NameSTARLINK-4070
Epoch Orbit130
Epoch Day192.91667824
Epoch Year2022
RAAN35.3789
Inclination53.2174
Eccentricity0.0001675
Argument of Perigee43.1826
Mean Anonmoly342.591
Mean Motion15.19063901
Decay Rate-0.00725465
L11 52664U 22053J 22192.91667824 -.00725465 00000+0 -36690-1 0 9999
L22 52664 53.2174 35.3789 0001675 43.1826 342.5910 15.19063901 1308

Live tracking and technical data element details for STARLINK-4070 (NORAD 52664). STARLINK-4070 can be tracked NOW for your location showing map with azimuth and elevation plus other details from your city location.

Track the satellite on the map from your city or location and see movement details for azimuth, elevation, latitude, longitude, range, height, and movement on the map or in text.







IsCatalogInMostPopularTable: catalog: 52664, numindb: 6
Update: records affected: 1



GetName: 52664 STARLINK-4070

Hit Count: updated at: Sun, 14 Aug 2022 01:29:50 GMT